Location: *
(46.1866°S, 178.5290°W)
Time: 21:34:31
(UTC+00:00)

CENTAUR R/B - Pass Details

Date: 19 May 2021
Orbit: 742 x 1446 km, 63.4° (Epoch: 09 June)

Event Time Altitude Azimuth Distance (km) Brightness Sun altitude
Rises 07:34:29 0° 235° (SW) 3,942 6.5 -32.0°
Reaches altitude 10° 07:38:33 10° 215° (SW) 2,830 5.3 -32.7°
Enters shadow 07:42:07 16° 182° (S) 2,274 4.5 -33.3°
